ITY96 LKTB-LIML

Flight info

Callsign ITY96
Flight time N/A
Altitude 34000
Route MIKOV DCT STO DCT ODSUD DCT NURMI DCT INGID DCT DETSA/N0349F190 M984 LUSIL
Aircraft A320/M-SDE3FGHIRWY/LB1

Departure

Time 2026-04-26 22:51
Airport Brno-Tuřany Airport (LKTB)

Arrival

Time N/A
Airport Milano Linate Airport (LIML)
Time Latitude Longitude Altitude Speed Heading
2026-04-26 22:30 49.15436 16.68612 786 ft 0 kts
2026-04-26 22:43 49.15425 16.68610 785 ft 3 kts
2026-04-26 22:43 49.15406 16.68609 784 ft 3 kts 18°
2026-04-26 22:43 49.15393 16.68592 783 ft 2 kts 95°
2026-04-26 22:43 49.15393 16.68591 783 ft 0 kts 99°
2026-04-26 22:46 49.15392 16.68595 783 ft 1 kts 99°
2026-04-26 22:46 49.15385 16.68686 783 ft 14 kts 96°
2026-04-26 22:46 49.15372 16.68838 780 ft 14 kts 98°
2026-04-26 22:47 49.15360 16.68978 781 ft 12 kts 98°
2026-04-26 22:47 49.15350 16.69089 782 ft 9 kts 97°
2026-04-26 22:47 49.15343 16.69181 782 ft 8 kts 97°
2026-04-26 22:47 49.15334 16.69284 782 ft 10 kts 97°
2026-04-26 22:48 49.15325 16.69383 782 ft 8 kts 97°
2026-04-26 22:48 49.15319 16.69458 782 ft 7 kts 98°
2026-04-26 22:48 49.15304 16.69611 781 ft 34 kts 97°
2026-04-26 22:48 49.15263 16.70087 778 ft 48 kts 97°
2026-04-26 22:49 49.15222 16.70575 779 ft 45 kts 97°
2026-04-26 22:49 49.15185 16.71021 786 ft 28 kts 97°
2026-04-26 22:49 49.15127 16.71200 789 ft 19 kts 173°
2026-04-26 22:49 49.15004 16.71171 790 ft 13 kts 206°
2026-04-26 22:50 49.14990 16.71048 788 ft 0 kts 277°
2026-04-26 22:50 49.14991 16.71040 788 ft 5 kts 277°
2026-04-26 22:50 49.15028 16.70604 782 ft 79 kts 277°
2026-04-26 22:51 49.15129 16.69436 783 ft 139 kts 277°
2026-04-26 22:51 49.15266 16.67786 1057 ft 162 kts 276°
2026-04-26 22:51 49.15411 16.66014 1565 ft 178 kts 277°
2026-04-26 22:51 49.15580 16.64034 2059 ft 194 kts 277°
2026-04-26 22:52 49.15582 16.61922 2538 ft 210 kts 252°
2026-04-26 22:52 49.14644 16.60087 2879 ft 238 kts 212°
2026-04-26 22:52 49.12984 16.59488 3244 ft 268 kts 176°
2026-04-26 22:52 49.11139 16.60554 3622 ft 298 kts 147°
2026-04-26 22:53 49.09453 16.62556 3957 ft 322 kts 147°
2026-04-26 22:53 49.07330 16.63842 4215 ft 340 kts 175°
2026-04-26 22:53 49.04943 16.63484 4404 ft 357 kts 201°
2026-04-26 22:53 49.02854 16.61409 4870 ft 363 kts 229°
2026-04-26 22:54 49.01433 16.58239 5543 ft 365 kts 241°
2026-04-26 22:54 49.00173 16.54868 6241 ft 368 kts 242°
2026-04-26 22:54 48.98918 16.51457 6924 ft 371 kts 242°
2026-04-26 22:54 48.97625 16.48026 7575 ft 375 kts 241°
2026-04-26 22:55 48.96289 16.44609 8222 ft 378 kts 240°
2026-04-26 22:55 48.94903 16.41172 8844 ft 383 kts 239°
2026-04-26 22:55 48.93480 16.37714 9438 ft 387 kts 239°
2026-04-26 22:55 48.92037 16.34233 10072 ft 391 kts 239°